Location: Eschertshofen
(49.3064°N, 11.5756°E)
Time: 01:39:52
(UTC+00:00)

Abrixas rocket - Pass Details

Date: 18 September 2020
Orbit: 327 x 334 km, 48.4° (Epoch: 30 October)

Event Time Altitude Azimuth Distance (km) Brightness Sun altitude
Rises 19:24:00 0° 268° (W) 2,091 6.8 -20.3°
Reaches altitude 10° 19:26:00 10° 267° (W) 1,254 5.5 -20.5°
Enters shadow 19:27:47 35° 260° (W) 557 3.3 -20.8°
